Time,TemperatureF,DewpointF,PressureIn,WindDirection,WindDirectionDegrees,WindSpeedMPH,WindSpeedGustMPH,Humidity,HourlyPrecipIn,Conditions,Clouds,dailyrainin,SoftwareType,DateUTC
2013-01-01 00:02:00,17.0,10.0,30.24,SW,218,2.0,4.0,71,-99.99,,,0.00,,2013-01-01 07:02:00,
2013-01-01 00:12:00,15.0,9.0,30.26,SW,217,2.0,4.0,77,-99.99,,,0.00,,2013-01-01 07:12:00,
2013-01-01 00:22:00,15.0,9.0,30.26,SW,217,2.0,4.0,77,-99.99,,,0.00,,2013-01-01 07:22:00,
2013-01-01 00:30:00,16.0,10.0,30.24,SW,217,3.0,6.0,76,-99.99,,,0.00,,2013-01-01 07:30:00,
2013-01-01 00:32:00,15.0,9.0,30.26,SW,217,0.0,4.0,76,-99.99,,,0.00,,2013-01-01 07:32:00,
2013-01-01 00:42:00,16.0,10.0,30.25,SW,217,1.0,4.0,77,-99.99,,,0.00,,2013-01-01 07:42:00,
2013-01-01 00:52:00,16.0,10.0,30.25,SW,217,1.0,4.0,77,-99.99,,,0.00,,2013-01-01 07:52:00,
2013-01-01 01:02:00,16.0,11.0,30.24,SW,217,3.0,5.0,78,-99.99,,,0.00,,2013-01-01 08:02:00,
2013-01-01 01:11:00,16.0,10.0,30.24,SW,217,3.0,6.0,76,-99.99,,,0.00,,2013-01-01 08:11:00,
2013-01-01 01:22:00,16.0,10.0,30.24,SW,217,3.0,6.0,76,-99.99,,,0.00,,2013-01-01 08:22:00,
2013-01-01 01:42:00,14.0,9.0,30.26,SW,217,1.0,4.0,79,-99.99,,,0.00,,2013-01-01 08:42:00,
2013-01-01 01:53:00,13.0,8.0,30.26,SW,217,0.0,4.0,79,-99.99,,,0.00,,2013-01-01 08:53:00,
2013-01-01 02:02:00,13.0,8.0,30.26,SW,217,0.0,4.0,79,-99.99,,,0.00,,2013-01-01 09:02:00,
2013-01-01 02:11:00,11.0,6.0,30.28,SW,217,2.0,4.0,79,-99.99,,,0.00,,2013-01-01 09:11:00,
2013-01-01 02:22:00,11.0,6.0,30.28,SW,217,2.0,4.0,79,-99.99,,,0.00,,2013-01-01 09:22:00,
2013-01-01 02:32:00,12.0,7.0,30.28,SW,217,0.0,4.0,82,-99.99,,,0.00,,2013-01-01 09:32:00,
2013-01-01 02:42:00,14.0,10.0,30.27,SW,217,1.0,6.0,83,-99.99,,,0.00,,2013-01-01 09:42:00,
2013-01-01 02:52:00,12.0,6.0,30.29,SW,217,0.0,3.0,79,-99.99,,,0.00,,2013-01-01 09:52:00,
2013-01-01 03:02:00,12.0,6.0,30.29,SW,217,0.0,3.0,79,-99.99,,,0.00,,2013-01-01 10:02:00,
2013-01-01 03:12:00,10.0,6.0,30.31,SW,217,2.0,3.0,81,-99.99,,,0.00,,2013-01-01 10:12:00,
2013-01-01 03:22:00,10.0,6.0,30.31,SW,217,2.0,3.0,81,-99.99,,,0.00,,2013-01-01 10:22:00,
2013-01-01 03:32:00,10.0,5.0,30.31,SW,217,2.0,3.0,81,-99.99,,,0.00,,2013-01-01 10:32:00,
2013-01-01 03:42:00,10.0,5.0,30.33,SW,217,2.0,4.0,81,-99.99,,,0.00,,2013-01-01 10:42:00,
2013-01-01 03:52:00,10.0,5.0,30.33,SW,217,2.0,4.0,81,-99.99,,,0.00,,2013-01-01 10:52:00,
2013-01-01 04:02:00,11.0,7.0,30.32,SW,217,2.0,4.0,82,-99.99,,,0.00,,2013-01-01 11:02:00,
2013-01-01 04:12:00,11.0,6.0,30.32,SW,218,1.0,4.0,80,-99.99,,,0.00,,2013-01-01 11:12:00,
2013-01-01 04:22:00,11.0,6.0,30.32,SW,218,1.0,4.0,80,-99.99,,,0.00,,2013-01-01 11:22:00,
2013-01-01 04:32:00,10.0,5.0,30.33,SW,217,0.0,2.0,79,-99.99,,,0.00,,2013-01-01 11:32:00,
2013-01-01 04:42:00,8.0,3.0,30.35,SW,217,3.0,4.0,79,-99.99,,,0.00,,2013-01-01 11:42:00,
2013-01-01 04:53:00,10.0,5.0,30.34,SW,217,2.0,4.0,80,-99.99,,,0.00,,2013-01-01 11:53:00,
2013-01-01 05:02:00,10.0,5.0,30.34,SW,217,2.0,4.0,80,-99.99,,,0.00,,2013-01-01 12:02:00,
2013-01-01 05:12:00,9.0,3.0,30.36,SW,217,2.0,4.0,79,-99.99,,,0.00,,2013-01-01 12:12:00,
2013-01-01 05:22:00,9.0,3.0,30.36,SW,217,2.0,4.0,79,-99.99,,,0.00,,2013-01-01 12:22:00,
2013-01-01 05:32:00,7.0,3.0,30.35,SW,217,0.0,3.0,80,-99.99,,,0.00,,2013-01-01 12:32:00,
2013-01-01 05:42:00,7.0,3.0,30.35,SW,217,0.0,3.0,80,-99.99,,,0.00,,2013-01-01 12:42:00,
2013-01-01 05:52:00,7.0,3.0,30.35,SW,217,0.0,3.0,80,-99.99,,,0.00,,2013-01-01 12:52:00,
2013-01-01 06:02:00,9.0,4.0,30.37,SW,217,1.0,5.0,81,-99.99,,,0.00,,2013-01-01 13:02:00,
2013-01-01 06:12:00,9.0,5.0,30.38,SW,217,3.0,5.0,81,-99.99,,,0.00,,2013-01-01 13:12:00,
2013-01-01 06:22:00,9.0,5.0,30.38,SW,217,3.0,5.0,81,-99.99,,,0.00,,2013-01-01 13:22:00,
2013-01-01 06:32:00,9.0,5.0,30.38,SW,217,1.0,4.0,81,-99.99,,,0.00,,2013-01-01 13:32:00,
2013-01-01 06:42:00,8.0,3.0,30.39,SW,217,1.0,4.0,80,-99.99,,,0.00,,2013-01-01 13:42:00,
2013-01-01 06:52:00,8.0,3.0,30.41,SW,217,2.0,3.0,80,-99.99,,,0.00,,2013-01-01 13:52:00,
2013-01-01 07:02:00,8.0,3.0,30.41,SW,217,2.0,3.0,80,-99.99,,,0.00,,2013-01-01 14:02:00,
2013-01-01 07:12:00,7.0,2.0,30.41,SW,217,0.0,4.0,79,-99.99,,,0.00,,2013-01-01 14:12:00,
2013-01-01 07:22:00,7.0,2.0,30.41,SW,217,0.0,4.0,79,-99.99,,,0.00,,2013-01-01 14:22:00,
2013-01-01 07:32:00,7.0,1.0,30.43,SW,218,2.0,6.0,77,-99.99,,,0.00,,2013-01-01 14:32:00,
2013-01-01 07:42:00,7.0,1.0,30.43,SW,218,2.0,6.0,77,-99.99,,,0.00,,2013-01-01 14:42:00,
2013-01-01 07:53:00,7.0,1.0,30.43,SW,218,2.0,6.0,77,-99.99,,,0.00,,2013-01-01 14:53:00,
2013-01-01 08:02:00,6.0,1.0,30.42,SW,218,2.0,4.0,79,-99.99,,,0.00,,2013-01-01 15:02:00,
2013-01-01 08:12:00,6.0,1.0,30.43,SW,218,1.0,4.0,80,-99.99,,,0.00,,2013-01-01 15:12:00,
2013-01-01 08:22:00,6.0,1.0,30.43,SW,218,1.0,4.0,80,-99.99,,,0.00,,2013-01-01 15:22:00,
2013-01-01 08:33:00,7.0,2.0,30.43,SW,218,4.0,5.0,79,-99.99,,,0.00,,2013-01-01 15:33:00,
2013-01-01 08:42:00,7.0,2.0,30.43,SW,218,4.0,5.0,79,-99.99,,,0.00,,2013-01-01 15:42:00,
2013-01-01 08:53:00,7.0,2.0,30.43,SW,218,4.0,5.0,79,-99.99,,,0.00,,2013-01-01 15:53:00,
2013-01-01 09:02:00,9.0,4.0,30.45,SW,219,2.0,5.0,79,-99.99,,,0.00,,2013-01-01 16:02:00,
2013-01-01 09:12:00,11.0,6.0,30.44,SW,219,0.0,5.0,79,-99.99,,,0.00,,2013-01-01 16:12:00,
2013-01-01 09:22:00,11.0,6.0,30.44,SW,219,0.0,5.0,79,-99.99,,,0.00,,2013-01-01 16:22:00,
2013-01-01 09:32:00,16.0,9.0,30.41,SW,219,0.0,3.0,76,-99.99,,,0.00,,2013-01-01 16:32:00,
2013-01-01 10:02:00,20.0,11.0,30.35,SW,219,1.0,2.0,69,-99.99,,,0.00,,2013-01-01 17:02:00,
2013-01-01 10:12:00,22.0,12.0,30.35,SW,219,0.0,2.0,66,-99.99,,,0.00,,2013-01-01 17:12:00,
2013-01-01 10:22:00,22.0,12.0,30.35,SW,219,0.0,2.0,66,-99.99,,,0.00,,2013-01-01 17:22:00,
2013-01-01 10:33:00,25.0,13.0,30.30,SW,218,0.0,4.0,58,-99.99,,,0.00,,2013-01-01 17:33:00,
2013-01-01 11:03:00,25.0,13.0,30.34,SW,218,2.0,4.0,59,-99.99,,,0.00,,2013-01-01 18:03:00,
2013-01-01 11:12:00,25.0,14.0,30.34,SW,219,2.0,5.0,60,-99.99,,,0.00,,2013-01-01 18:12:00,
2013-01-01 11:22:00,25.0,14.0,30.34,SW,219,2.0,5.0,60,-99.99,,,0.00,,2013-01-01 18:22:00,
2013-01-01 11:33:00,30.0,14.0,30.31,SW,218,1.0,4.0,51,-99.99,,,0.00,,2013-01-01 18:33:00,
2013-01-01 11:42:00,30.0,14.0,30.31,SW,218,1.0,4.0,51,-99.99,,,0.00,,2013-01-01 18:42:00,
2013-01-01 11:53:00,30.0,14.0,30.31,SW,218,1.0,4.0,51,-99.99,,,0.00,,2013-01-01 18:53:00,
2013-01-01 12:02:00,28.0,13.0,30.35,SW,218,0.0,3.0,52,-99.99,,,0.00,,2013-01-01 19:02:00,
2013-01-01 12:12:00,31.0,12.0,30.33,SW,218,0.0,3.0,46,-99.99,,,0.00,,2013-01-01 19:12:00,
2013-01-01 12:22:00,31.0,12.0,30.33,SW,218,0.0,3.0,46,-99.99,,,0.00,,2013-01-01 19:22:00,
2013-01-01 12:32:00,29.0,12.0,30.34,SW,218,4.0,5.0,50,-99.99,,,0.00,,2013-01-01 19:32:00,
2013-01-01 12:42:00,30.0,13.0,30.33,SW,218,0.0,5.0,50,-99.99,,,0.00,,2013-01-01 19:42:00,
2013-01-01 12:52:00,30.0,14.0,30.32,ENE,62,9.0,11.0,50,-99.99,,,0.00,,2013-01-01 19:52:00,
2013-01-01 13:02:00,30.0,14.0,30.32,ENE,62,9.0,11.0,50,-99.99,,,0.00,,2013-01-01 20:02:00,
2013-01-01 13:12:00,30.0,14.0,30.32,NE,46,4.0,11.0,52,-99.99,,,0.00,,2013-01-01 20:12:00,
2013-01-01 13:22:00,30.0,14.0,30.32,NE,46,4.0,11.0,52,-99.99,,,0.00,,2013-01-01 20:22:00,
2013-01-01 13:32:00,30.0,14.0,30.31,NE,49,4.0,9.0,52,-99.99,,,0.00,,2013-01-01 20:32:00,
2013-01-01 13:42:00,31.0,16.0,30.31,NE,56,5.0,14.0,53,-99.99,,,0.00,,2013-01-01 20:42:00,
2013-01-01 13:53:00,31.0,16.0,30.31,NE,56,5.0,14.0,53,-99.99,,,0.00,,2013-01-01 20:53:00,
2013-01-01 14:03:00,30.0,15.0,30.31,NE,44,5.0,11.0,54,-99.99,,,0.00,,2013-01-01 21:03:00,
2013-01-01 14:12:00,30.0,16.0,30.30,NE,34,5.0,12.0,57,-99.99,,,0.00,,2013-01-01 21:12:00,
2013-01-01 14:22:00,30.0,16.0,30.30,NE,34,5.0,12.0,57,-99.99,,,0.00,,2013-01-01 21:22:00,
2013-01-01 14:32:00,29.0,16.0,30.32,NNE,17,3.0,12.0,57,-99.99,,,0.00,,2013-01-01 21:32:00,
2013-01-01 14:42:00,30.0,16.0,30.31,NE,42,3.0,14.0,56,-99.99,,,0.00,,2013-01-01 21:42:00,
2013-01-01 14:53:00,29.0,16.0,30.36,NE,49,3.0,13.0,56,-99.99,,,0.00,,2013-01-01 21:53:00,
2013-01-01 15:02:00,29.0,16.0,30.36,NE,49,3.0,13.0,56,-99.99,,,0.00,,2013-01-01 22:02:00,
2013-01-01 15:12:00,29.0,15.0,30.37,NE,38,3.0,13.0,55,-99.99,,,0.00,,2013-01-01 22:12:00,
2013-01-01 15:22:00,29.0,15.0,30.37,NE,38,3.0,13.0,55,-99.99,,,0.00,,2013-01-01 22:22:00,
2013-01-01 15:32:00,29.0,15.0,30.37,NE,36,5.0,12.0,55,-99.99,,,-99.99,,2013-01-01 22:32:00,
2013-01-01 15:42:00,29.0,14.0,30.37,NE,41,5.0,13.0,53,-99.99,,,0.00,,2013-01-01 22:42:00,
2013-01-01 15:52:00,29.0,14.0,30.37,NE,41,5.0,13.0,53,-99.99,,,0.00,,2013-01-01 22:52:00,
2013-01-01 16:02:00,29.0,14.0,30.39,NE,44,6.0,11.0,54,-99.99,,,0.00,,2013-01-01 23:02:00,
2013-01-01 16:12:00,29.0,14.0,30.40,NE,42,7.0,11.0,53,-99.99,,,0.00,,2013-01-01 23:12:00,
2013-01-01 16:22:00,29.0,14.0,30.40,NE,42,7.0,11.0,53,-99.99,,,0.00,,2013-01-01 23:22:00,
2013-01-01 16:32:00,28.0,12.0,30.40,NNE,33,10.0,12.0,51,-99.99,,,0.00,,2013-01-01 23:32:00,
2013-01-01 16:42:00,28.0,12.0,30.40,NNE,33,10.0,12.0,51,-99.99,,,0.00,,2013-01-01 23:42:00,
2013-01-01 16:52:00,28.0,12.0,30.40,NNE,33,10.0,12.0,51,-99.99,,,0.00,,2013-01-01 23:52:00,
2013-01-01 17:02:00,27.0,11.0,30.42,NNE,32,6.0,14.0,51,-99.99,,,0.00,,2013-01-02 00:02:00,
2013-01-01 17:12:00,26.0,11.0,30.42,NNE,29,11.0,14.0,51,-99.99,,,0.00,,2013-01-02 00:12:00,
2013-01-01 17:22:00,26.0,11.0,30.42,NNE,29,11.0,14.0,51,-99.99,,,0.00,,2013-01-02 00:22:00,
2013-01-01 17:32:00,26.0,11.0,30.42,NNE,20,6.0,15.0,54,-99.99,,,-99.99,,2013-01-02 00:32:00,
2013-01-01 17:42:00,24.0,11.0,30.44,North,5,9.0,15.0,58,-99.99,,,0.00,,2013-01-02 00:42:00,
2013-01-01 17:52:00,24.0,11.0,30.44,North,5,9.0,15.0,58,-99.99,,,0.00,,2013-01-02 00:52:00,
2013-01-01 18:02:00,23.0,12.0,30.46,North,5,7.0,15.0,63,-99.99,,,0.00,,2013-01-02 01:02:00,
2013-01-01 18:12:00,22.0,12.0,30.46,North,355,11.0,15.0,64,-99.99,,,0.00,,2013-01-02 01:12:00,
2013-01-01 18:22:00,22.0,12.0,30.46,North,355,11.0,15.0,64,-99.99,,,0.00,,2013-01-02 01:22:00,
2013-01-01 18:32:00,21.0,11.0,30.48,NNW,346,9.0,15.0,65,-99.99,,,0.00,,2013-01-02 01:32:00,
2013-01-01 18:42:00,21.0,11.0,30.48,NNW,346,9.0,15.0,65,-99.99,,,0.00,,2013-01-02 01:42:00,
2013-01-01 18:52:00,21.0,11.0,30.48,NNW,346,9.0,15.0,65,-99.99,,,0.00,,2013-01-02 01:52:00,
2013-01-01 19:02:00,21.0,11.0,30.48,NNW,348,7.0,12.0,63,-99.99,,,0.00,,2013-01-02 02:02:00,
2013-01-01 19:12:00,21.0,11.0,30.49,North,355,5.0,13.0,63,-99.99,,,0.00,,2013-01-02 02:12:00,
2013-01-01 19:22:00,21.0,11.0,30.49,North,355,5.0,13.0,63,-99.99,,,0.00,,2013-01-02 02:22:00,
2013-01-01 19:32:00,21.0,10.0,30.50,North,360,3.0,10.0,62,-99.99,,,0.00,,2013-01-02 02:32:00,
2013-01-01 19:42:00,21.0,10.0,30.50,North,360,3.0,10.0,62,-99.99,,,0.00,,2013-01-02 02:42:00,
2013-01-01 19:53:00,21.0,10.0,30.50,North,360,3.0,10.0,62,-99.99,,,0.00,,2013-01-02 02:53:00,
2013-01-01 20:02:00,20.0,10.0,30.53,North,360,2.0,6.0,64,-99.99,,,0.00,,2013-01-02 03:02:00,
2013-01-01 20:11:00,19.0,9.0,30.53,North,360,3.0,6.0,65,-99.99,,,0.00,,2013-01-02 03:11:00,
2013-01-01 20:22:00,19.0,9.0,30.53,North,360,3.0,6.0,65,-99.99,,,0.00,,2013-01-02 03:22:00,
2013-01-01 20:32:00,18.0,9.0,30.56,North,360,0.0,4.0,66,-99.99,,,0.00,,2013-01-02 03:32:00,
2013-01-01 20:42:00,17.0,8.0,30.55,North,360,0.0,4.0,67,-99.99,,,0.00,,2013-01-02 03:42:00,
2013-01-01 20:53:00,17.0,8.0,30.55,North,360,0.0,4.0,67,-99.99,,,0.00,,2013-01-02 03:53:00,
2013-01-01 21:02:00,17.0,8.0,30.49,North,360,5.0,6.0,68,-99.99,,,0.00,,2013-01-02 04:02:00,
2013-01-01 21:12:00,16.0,7.0,30.49,North,360,6.0,7.0,67,-99.99,,,0.00,,2013-01-02 04:12:00,
2013-01-01 21:22:00,16.0,7.0,30.49,North,360,6.0,7.0,67,-99.99,,,0.00,,2013-01-02 04:22:00,
2013-01-01 21:32:00,16.0,7.0,30.48,North,355,6.0,10.0,68,-99.99,,,0.00,,2013-01-02 04:32:00,
2013-01-01 21:42:00,16.0,7.0,30.48,North,355,6.0,10.0,68,-99.99,,,0.00,,2013-01-02 04:42:00,
2013-01-01 21:52:00,16.0,7.0,30.48,North,355,6.0,10.0,68,-99.99,,,0.00,,2013-01-02 04:52:00,
2013-01-01 22:03:00,16.0,7.0,30.40,North,355,5.0,10.0,68,-99.99,,,0.00,,2013-01-02 05:03:00,
2013-01-01 22:12:00,17.0,8.0,30.40,North,355,9.0,10.0,68,-99.99,,,-99.99,,2013-01-02 05:12:00,
2013-01-01 22:22:00,17.0,8.0,30.40,North,355,9.0,10.0,68,-99.99,,,-99.99,,2013-01-02 05:22:00,
2013-01-01 22:32:00,16.0,7.0,30.41,North,355,5.0,10.0,68,-99.99,,,-99.99,,2013-01-02 05:32:00,
2013-01-01 22:42:00,16.0,7.0,30.42,NNW,344,9.0,12.0,69,-99.99,,,0.00,,2013-01-02 05:42:00,
2013-01-01 22:53:00,16.0,7.0,30.42,NNW,344,9.0,12.0,69,-99.99,,,0.00,,2013-01-02 05:53:00,
2013-01-01 23:02:00,15.0,7.0,30.40,NNW,344,7.0,10.0,70,-99.99,,,0.00,,2013-01-02 06:02:00,
2013-01-01 23:12:00,15.0,7.0,30.40,NNW,344,4.0,10.0,70,-99.99,,,0.00,,2013-01-02 06:12:00,
2013-01-01 23:22:00,15.0,7.0,30.40,NNW,344,4.0,10.0,70,-99.99,,,0.00,,2013-01-02 06:22:00,
2013-01-01 23:32:00,17.0,8.0,30.38,NNW,334,6.0,12.0,67,-99.99,,,0.00,,2013-01-02 06:32:00,
2013-01-01 23:42:00,17.0,8.0,30.38,NNW,334,6.0,12.0,67,-99.99,,,0.00,,2013-01-02 06:42:00,
2013-01-01 23:52:00,17.0,8.0,30.38,NNW,334,6.0,12.0,67,-99.99,,,0.00,,2013-01-02 06:52:00,